Location: Devargunta
(16.7631°N, 80.9077°E)
Time: 15:56:41
(UTC+00:00)

SJ-12 - Pass Details

Date: 19 January 2021
Orbit: 568 x 584 km, 97.7° (Epoch: 25 February)

Event Time Altitude Azimuth Distance (km) Brightness Sun altitude
Exits shadow 23:54:02 38° 290° (WNW) 894 4.3 -17.8°
Maximum altitude 23:54:11 38° 284° (WNW) 891 4.3 -17.8°
Drops below altitude 10° 23:58:00 10° 215° (SW) 1,890 6.4 -16.9°
Sets 00:00:15 0° 207° (SSW) 2,785 7.3 -16.4°
